Wind_Speed
10 7 11 7 1 3 6 3 6 8 3 6 12 9 15 10 6 8 16 23 24 18 14 14 13 12 12 11 10 9 9 10 10 10 10 11 8 8 7 6 5 6 6 6 7 7 7 7 7
6 8 5 4 3 4 5 2 5 7 7 9 7 3 10 7 6 12 14 19 20 19 13 13 13 12 12 11 10 9 9 10 10 10 9 9 8 7 7 6 4 4 6 6 7 7 8 8 8
6 7 2 3 4 7 4 7 10 9 7 4 4 8 6 6 10 13 21 19 20 19 15 13 12 11 10 9 7 7 7 7 7 7 7 7 7 7 8 8 5 5 6 7 8 8 9 8 8
6 3 4 3 8 11 9 5 13 7 4 4 10 8 5 11 7 16 20 21 21 19 13 13 11 10 8 7 8 8 6 5 5 6 5 5 4 6 7 8 6 5 6 8 9 10 10 11 11
13 3 4 6 10 8 4 4 10 7 8 4 2 5 5 7 19 19 17 19 21 19 14 13 11 9 8 7 6 6 4 4 4 5 5 6 7 8 8 8 8 8 8 8 9 10 11 13 14
3 4 5 9 13 12 5 5 8 7 7 6 7 8 5 12 18 14 18 20 18 17 13 13 10 8 7 6 5 5 4 5 6 6 7 8 8 9 9 9 9 10 10 10 11 12 12 13 14
5 3 7 10 10 11 5 7 3 7 8 4 9 6 7 13 13 17 21 21 21 17 12 10 10 7 6 5 4 5 5 6 7 8 10 11 11 10 12 12 12 12 13 13 14 14 15 16 16
3 3 10 7 13 12 9 9 6 8 5 4 4 5 8 13 18 19 19 17 17 18 14 11 11 6 3 4 4 5 6 7 9 10 11 12 11 11 11 12 13 18 15 15 16 17 18 19 19
7 3 9 13 10 9 11 9 2 3 6 4 6 5 23 26 22 18 16 15 14 16 16 12 8 5 4 6 6 8 9 9 9 9 10 10 9 10 13 14 14 15 14 15 15 15 17 18 18
5 4 11 11 9 4 11 11 8 5 8 5 8 18 25 22 21 17 15 15 13 13 14 11 8 5 3 1 5 7 8 8 9 9 10 8 9 10 13 12 15 13 17 17 14 15 16 14 14
6 5 8 11 6 4 12 9 9 5 7 9 12 14 16 18 16 15 14 15 15 12 11 8 6 4 2 2 4 5 5 6 8 9 11 11 9 10 11 13 12 15 14 14 16 14 14 15 17
5 12 5 4 4 5 9 7 7 3 4 7 17 18 17 13 13 13 15 15 17 12 9 8 4 3 1 2 3 4 5 8 7 10 11 13 12 12 12 14 15 15 15 16 15 16 15 16 16
13 8 8 6 5 5 9 2 3 8 6 4 18 16 13 12 15 16 16 16 14 12 9 7 4 1 2 2 3 4 5 6 9 8 10 14 14 15 15 16 15 16 15 16 16 16 17 17 17
8 7 8 4 6 5 6 5 4 5 5 8 9 10 10 9 14 16 17 13 12 10 9 6 4 1 1 1 3 3 6 7 8 9 9 13 13 14 15 17 15 15 15 15 16 17 17 17 16
7 8 7 5 5 2 2 3 1 7 7 8 9 8 8 10 15 15 13 13 12 9 9 8 4 3 1 3 4 5 6 7 8 10 11 11 13 14 15 15 15 14 16 17 14 15 15 16 16
8 8 6 4 6 0 3 5 7 6 8 9 9 8 8 9 12 15 14 13 11 11 8 7 5 2 2 3 5 5 6 8 8 11 11 11 14 12 14 13 13 14 15 13 12 14 15 16 18
8 7 7 5 5 6 6 8 7 6 6 8 9 9 7 8 9 15 11 10 10 9 9 8 5 5 4 5 5 7 8 10 8 10 10 12 13 11 13 11 12 12 12 12 12 13 15 17 19
7 10 9 8 6 6 7 6 6 4 5 8 8 10 8 9 9 15 13 10 9 9 8 6 7 6 6 4 6 7 7 7 8 11 10 14 12 11 12 11 11 11 12 13 13 14 15 17 16
8 7 8 8 3 4 9 8 8 6 3 7 4 6 8 7 10 16 14 11 9 9 9 10 8 6 5 4 5 5 4 9 9 10 14 11 11 11 11 10 10 10 11 13 13 14 17 18 19
6 10 8 7 4 2 8 7 7 7 5 4 6 5 7 7 8 11 10 10 8 8 9 9 9 7 7 6 5 7 8 10 11 11 11 11 13 11 11 9 10 8 11 11 11 13 13 14 17
3 0 6 7 3 3 6 1 6 2 5 3 3 3 5 7 6 6 9 13 9 7 8 9 9 8 8 7 7 8 8 11 10 9 10 12 14 12 11 10 10 9 9 10 11 11 10 13 16
4 9 8 11 5 3 3 3 7 8 7 6 6 4 5 7 6 5 3 4 6 6 7 7 8 8 7 7 8 8 10 13 12 13 14 13 13 12 12 11 9 10 10 9 10 9 10 9 10
2 4 5 6 5 2 2 4 2 11 7 7 7 6 7 7 7 7 6 7 7 6 7 7 6 7 7 8 9 10 11 12 13 14 14 13 12 12 12 12 12 10 10 10 10 10 9 7 8
4 6 8 4 3 3 2 4 4 4 7 8 7 7 7 6 7 10 9 8 7 5 3 3 4 6 7 8 8 10 13 16 16 16 16 15 13 12 12 14 13 10 10 10 10 10 10 9 9
2 3 3 4 3 4 4 3 4 4 5 9 10 8 7 6 6 6 7 7 7 4 1 3 5 6 5 6 9 12 15 17 18 18 17 15 14 12 12 12 12 13 10 11 11 10 10 11 10
2 4 4 5 4 3 0 5 4 6 7 7 9 8 6 7 6 7 8 7 8 6 5 3 3 4 6 9 12 14 16 16 17 17 16 16 16 14 12 12 13 13 14 14 11 12 13 12 11
3 1 2 3 2 3 4 2 1 5 5 6 7 7 7 7 6 7 9 8 8 7 7 6 6 6 7 9 11 12 12 13 15 17 17 18 17 16 15 14 15 15 14 15 14 15 15 14 14
2 2 2 2 3 2 4 2 5 8 9 8 8 8 7 6 7 6 9 7 7 6 6 6 7 8 10 10 11 12 14 14 14 15 17 17 18 18 18 18 17 16 15 15 15 15 14 14 14
0 1 1 1 3 4 2 5 1 10 10 9 8 8 7 7 6 5 6 6 6 6 7 8 10 11 12 13 13 14 15 15 16 16 17 17 18 19 19 18 18 17 16 15 15 15 15 14 15
3 4 1 4 3 1 3 5 3 7 9 9 8 7 7 8 6 5 6 4 5 7 8 9 11 12 14 15 16 16 16 15 16 17 17 18 19 19 19 18 19 18 17 17 17 17 16 15 15
Wind_Direction
268 296 306 287 278 207 258 252 79 81 79 40 36 49 88 47 35 114 126 114 123 123 115 111 107 105 101 99 93 85 75 69 62 59 62 57 54 48 31 13 15 16 17 13 12 11 11 11 12
236 278 268 273 229 228 228 127 144 96 87 80 59 38 44 69 76 108 111 129 128 118 127 118 111 104 99 93 88 82 74 66 61 54 52 52 47 40 33 25 350 354 352 348 348 350 350 349 349
228 243 256 206 220 237 220 131 105 99 98 143 91 28 71 100 123 134 131 131 124 128 131 119 112 106 100 91 83 79 68 61 54 50 43 38 30 21 13 18 35 339 334 331 326 325 327 327 326
222 200 272 241 222 234 257 70 109 107 25 334 109 80 63 45 88 124 130 123 109 123 131 123 122 113 109 100 93 92 88 76 64 49 37 28 15 4 353 354 353 334 318 315 314 310 309 311 313
239 245 234 221 245 245 210 35 123 141 140 162 281 110 83 48 112 135 120 123 131 123 126 128 125 121 114 110 101 87 70 52 39 26 12 360 350 350 343 339 335 326 317 312 307 306 301 301 300
201 229 199 216 219 250 108 97 135 162 129 92 104 96 93 139 131 117 131 130 132 125 124 130 122 116 112 104 92 74 50 30 19 9 0 354 348 342 337 333 325 319 313 308 304 302 301 300 300
238 227 233 195 225 222 148 121 203 126 120 167 123 95 132 109 117 119 116 113 116 111 112 115 118 110 106 97 73 49 23 8 358 354 350 345 344 347 339 334 320 321 313 307 302 299 296 296 296
220 269 230 244 210 223 140 135 197 139 76 38 42 162 168 146 121 118 117 119 127 132 130 118 99 102 68 74 40 17 7 1 358 359 357 360 4 350 333 325 312 315 312 307 304 302 300 298 295
242 257 216 223 216 217 125 129 18 78 115 83 47 6 124 136 135 124 125 124 127 132 122 118 117 96 57 13 11 5 4 5 8 6 346 359 337 325 312 331 334 338 334 329 322 316 316 310 303
211 216 203 234 244 196 137 126 114 154 128 92 91 87 114 134 137 140 144 138 136 132 118 126 132 107 106 53 5 1 6 360 354 348 348 344 343 334 330 335 334 333 328 332 334 324 323 324 321
217 208 198 226 352 8 142 146 149 196 165 172 154 137 137 145 151 154 152 150 144 137 130 136 136 118 113 17 46 343 3 342 357 329 348 345 336 334 333 325 324 322 328 322 318 321 315 314 312
206 253 291 107 8 81 134 138 142 237 69 3 148 143 144 156 162 156 144 147 144 146 148 141 135 130 60 72 19 5 335 17 333 350 340 333 341 334 327 321 323 322 319 316 319 318 319 314 310
230 218 65 54 41 70 112 151 150 100 75 41 128 139 154 159 156 162 157 146 150 151 151 151 151 122 52 32 49 357 1 345 338 336 337 330 340 331 327 326 324 324 320 321 319 320 319 316 316
200 123 114 116 70 58 119 75 343 81 113 105 123 142 155 148 166 153 139 146 156 163 162 162 153 123 24 10 7 9 335 334 336 330 336 329 329 330 328 325 327 326 326 317 319 322 321 320 319
177 116 117 140 145 108 92 107 144 113 126 132 141 150 148 160 171 137 150 164 169 173 167 163 190 181 232 341 350 342 343 335 328 320 326 337 329 331 330 332 332 330 319 321 326 326 326 328 327
147 133 138 143 165 120 178 176 122 160 146 158 148 147 150 159 147 162 170 165 168 168 178 179 200 205 226 286 308 320 317 321 327 328 339 331 320 334 327 332 331 330 330 330 329 331 335 334 331
200 160 170 137 227 138 201 130 144 161 184 153 148 139 153 136 162 142 157 168 174 181 174 203 215 222 253 269 309 324 334 339 336 329 321 312 326 325 324 332 331 332 334 328 327 339 338 333 330
193 171 163 137 198 178 193 114 118 168 206 155 163 150 166 164 178 160 168 177 182 184 184 212 215 224 251 287 326 328 330 324 315 320 314 312 325 318 324 331 329 329 329 334 338 335 342 338 338
150 211 153 106 103 184 185 144 156 154 233 144 189 153 161 175 160 152 154 175 190 199 205 212 220 237 242 267 279 287 296 290 303 288 303 317 316 320 315 326 324 330 332 332 341 353 348 343 352
263 219 104 66 66 55 184 161 136 149 201 169 174 201 180 165 134 144 168 175 190 206 211 212 217 215 239 244 263 274 278 291 299 318 329 331 317 316 315 312 318 321 328 331 337 338 340 341 348
20 68 168 127 136 245 108 269 143 120 99 74 13 20 57 70 54 59 155 170 178 202 205 212 216 217 231 259 272 291 303 304 310 323 305 308 304 308 304 306 311 311 314 317 323 330 339 338 340
70 324 89 123 103 164 69 243 175 152 169 186 168 196 157 122 107 78 85 125 160 194 198 203 205 223 238 261 277 279 287 294 305 300 304 305 304 295 292 293 299 303 304 308 310 311 324 332 336
128 289 78 93 81 68 216 72 276 137 173 181 161 131 106 105 110 114 102 110 127 166 188 196 218 240 261 269 274 282 287 290 297 299 296 299 301 294 285 276 292 288 295 297 300 302 309 311 321
191 88 55 72 104 43 354 114 256 184 189 151 134 135 138 125 124 120 126 140 138 150 176 218 250 270 274 278 286 286 290 296 296 294 292 294 296 285 279 277 289 291 284 286 287 287 292 292 296
303 105 27 21 19 216 293 57 265 122 26 136 145 150 140 165 123 133 130 116 109 94 78 275 275 280 282 281 296 298 296 294 290 291 291 290 289 287 289 278 273 287 279 283 283 281 280 283 279
73 131 143 168 178 213 285 227 248 98 78 76 110 134 155 128 113 94 92 86 78 54 33 9 341 313 295 294 296 297 297 295 292 291 287 284 281 280 280 276 276 278 278 276 273 275 277 273 274
230 204 241 108 49 72 201 145 94 128 142 152 153 164 154 124 109 91 85 69 65 52 37 22 5 342 323 313 313 313 311 303 297 294 289 283 280 281 282 277 275 275 272 272 272 269 273 274 272
337 247 77 7 95 250 269 227 222 187 186 181 170 159 123 99 88 85 86 84 71 53 30 15 359 346 337 327 321 316 312 311 308 302 295 289 285 282 280 279 277 275 275 276 272 270 270 270 271
19 291 260 104 133 180 189 260 250 195 177 171 174 142 132 126 121 111 101 88 68 40 17 2 351 344 336 328 324 318 317 315 313 308 304 300 296 288 282 279 276 274 272 271 267 269 273 270 271
328 311 258 126 234 172 152 272 352 186 170 154 149 143 150 148 140 128 107 72 48 25 8 1 352 343 337 334 329 324 322 321 316 312 309 307 299 295 288 281 275 273 271 268 265 266 265 266 270
Height
792 792 792 791 810 801 806 789 770 781 778 773 770 780 796 798 805 830 813 815 818 822 825 827 829 831 832 833 833 834 835 835 835 836 836 836 835 835 835 835 835 835 834 834 833 832 831 831 830
792 793 793 792 811 815 805 778 783 779 778 776 777 780 793 811 803 808 814 818 819 824 827 829 830 832 833 834 835 836 836 836 836 837 837 836 836 836 835 834 835 835 834 834 833 832 832 831 830
793 793 795 799 804 811 798 777 780 780 777 780 787 784 794 812 807 810 815 819 820 824 829 830 832 833 835 835 836 837 837 837 837 837 837 837 837 836 836 835 835 834 834 833 833 832 831 830 830
793 793 793 802 801 787 781 773 777 783 782 779 783 804 803 804 808 812 816 817 821 826 829 832 833 835 835 836 837 838 838 838 838 838 837 838 837 837 836 835 835 834 833 832 832 831 830 829 828
793 789 805 804 796 779 770 770 774 785 787 787 783 804 812 812 811 814 817 819 823 827 830 832 834 835 836 837 837 838 838 839 839 838 838 837 837 836 836 834 834 833 832 831 830 829 829 828 827
795 787 804 808 796 777 771 769 774 780 782 787 792 802 814 814 815 816 819 821 824 827 830 833 835 836 837 838 838 838 839 839 839 838 838 837 837 836 835 834 833 831 830 830 829 827 826 826 825
792 793 799 795 791 784 774 770 778 781 786 791 784 805 814 815 816 818 820 824 826 829 832 833 835 837 838 838 839 839 839 839 839 838 838 837 836 835 834 833 831 830 829 827 826 825 824 823 822
786 790 795 788 789 786 769 773 773 779 793 782 785 805 815 815 817 819 821 824 827 829 833 835 836 838 838 839 839 839 839 839 838 837 837 836 836 835 834 832 830 828 827 825 824 822 821 820 819
779 797 798 788 781 774 764 777 774 779 788 787 792 791 795 810 817 821 824 826 830 831 832 835 837 838 838 839 839 839 839 838 838 837 836 836 836 834 833 831 829 827 825 823 821 820 818 817 815
785 793 785 770 764 765 768 774 782 788 793 797 800 803 806 813 817 822 826 827 830 832 832 835 836 838 839 840 839 839 839 839 838 837 835 835 834 834 832 831 829 827 825 823 821 819 817 816 814
782 784 767 765 771 762 769 775 779 786 797 791 800 805 810 814 819 822 825 826 828 833 833 835 836 838 839 839 840 840 839 838 838 837 835 834 833 832 831 830 828 826 824 822 820 818 817 815 813
784 771 765 769 771 766 775 772 782 785 793 787 789 799 808 814 818 821 825 828 830 833 834 835 837 838 839 839 839 840 840 837 837 837 835 833 832 831 830 828 826 825 823 820 819 817 815 813 812
782 772 771 774 772 769 772 781 785 794 790 788 792 800 807 812 816 821 825 828 830 833 834 835 837 837 838 839 839 840 838 837 837 836 835 833 832 830 828 826 825 823 821 819 817 815 813 811 809
771 774 778 776 776 775 783 788 787 795 789 794 797 802 805 810 815 820 824 828 830 833 834 835 837 837 838 838 838 838 837 837 836 835 835 833 831 829 827 825 824 822 820 817 815 814 812 810 807
767 783 782 783 782 786 783 800 797 792 792 799 801 803 806 810 814 819 824 827 830 832 833 835 835 836 837 837 837 837 837 836 836 835 834 832 831 829 827 825 823 822 819 816 814 813 811 808 807
776 782 798 785 784 790 793 808 801 793 795 801 802 805 807 810 815 820 823 826 829 831 833 834 835 835 836 837 837 836 835 835 834 834 833 832 830 828 826 824 822 821 819 816 814 812 810 808 806
781 799 792 797 784 791 796 803 798 793 794 799 802 806 809 812 815 819 822 825 828 831 832 832 833 835 835 836 835 835 834 834 833 833 832 830 828 827 825 823 822 821 819 816 815 812 810 807 805
792 790 788 800 794 789 798 806 801 796 795 799 800 805 808 811 814 817 821 825 828 829 830 831 833 834 834 834 835 834 833 833 833 832 831 829 827 826 824 823 822 820 819 816 814 812 811 808 804
775 778 784 791 787 790 797 803 803 801 799 802 801 803 806 808 809 815 820 823 826 828 829 830 832 833 834 834 835 834 834 833 832 831 829 827 826 825 824 822 821 820 818 816 814 812 810 808 805
776 779 797 798 790 795 793 799 800 802 803 801 803 804 805 806 810 814 818 822 824 826 827 829 830 832 832 833 833 833 833 832 831 829 827 826 825 824 823 822 820 819 817 815 814 813 811 809 806
780 782 790 795 796 791 792 802 807 802 803 803 805 805 806 808 811 813 817 819 822 824 826 827 829 830 831 831 831 831 831 830 829 828 827 826 825 823 822 821 820 818 817 816 814 813 812 810 808
791 794 783 796 812 833 799 843 807 809 810 809 809 809 809 810 811 814 817 819 821 823 825 827 828 829 830 830 830 830 830 829 828 827 825 824 823 822 821 820 819 817 816 815 814 812 811 810 809
805 794 789 799 822 814 807 837 801 803 813 811 811 809 811 811 813 816 818 820 821 823 824 826 827 828 828 828 828 828 828 827 825 825 823 822 821 820 819 818 817 816 815 814 813 812 810 809 809
798 797 802 811 837 848 820 832 828 811 803 808 810 811 812 813 814 816 819 820 822 824 825 825 826 826 827 827 827 826 825 824 822 821 820 819 818 818 817 815 814 813 813 812 812 810 809 808 808
802 808 854 853 855 844 867 847 812 800 798 802 810 813 813 813 814 816 818 820 822 823 824 824 825 825 825 825 825 824 822 821 819 818 817 816 816 815 814 813 812 811 810 810 810 808 807 806 805
806 815 830 840 848 842 836 840 822 804 804 804 807 811 812 814 815 817 819 820 822 823 823 823 823 823 823 823 822 821 820 818 817 815 814 813 813 812 811 811 810 809 809 808 807 806 805 804 803
809 821 809 818 816 837 838 809 806 807 809 809 812 812 814 814 816 817 819 820 821 822 822 823 822 822 822 821 819 818 817 816 814 813 811 810 809 808 807 807 807 807 806 805 804 803 802 802 801
812 809 822 831 840 830 825 802 821 817 813 810 811 813 814 815 818 819 820 821 822 823 823 822 822 822 821 820 818 817 815 814 812 810 809 808 806 805 804 804 803 803 802 801 801 800 800 799 799
819 818 810 814 815 835 836 825 795 811 805 809 810 811 815 817 819 820 821 822 823 823 822 822 822 821 820 818 816 814 813 812 810 808 806 804 803 802 801 800 800 799 798 798 797 797 797 796 796
814 810 802 834 814 835 843 831 792 795 800 804 806 809 813 816 818 819 821 822 822 822 822 822 822 821 819 817 815 812 810 808 807 806 805 803 800 799 797 796 796 795 794 794 794 793 793 793 792